Address 0xc1b20fc0f57416ed53e3591d630d3f31dbbc70d7

Txn Hash Method
Block
From
To
Value [Txn Fee]
0x6926330a79568cecb9bc4822a5e0f59a4f1b81907cfb9f7b7f8436ff3d0d8bae0x5e1c105967824732023-02-02 20:51:2912 mins ago0xc1b20fc0f57416ed53e3591d630d3f31dbbc70d7OUT 0xc2308db5d15aa43228d2c64cfb6cf62bfbd480b20 CRO0.6555750
0x6a179f3cf218394bbbb3f53ae9c84f56f6d45b917fbbe4860e6f073344076cc50x5e1c105967823352023-02-02 20:38:2925 mins ago0xc1b20fc0f57416ed53e3591d630d3f31dbbc70d7OUT 0xc2308db5d15aa43228d2c64cfb6cf62bfbd480b20 CRO0.6556050
0x2ae0bc27c3c33cf9c89f94182f60c519a7c13770e79d7059deead36f6b31e20d0x5e1c105967820972023-02-02 20:16:0448 mins ago0xc1b20fc0f57416ed53e3591d630d3f31dbbc70d7OUT 0xc2308db5d15aa43228d2c64cfb6cf62bfbd480b20 CRO0.6556350
0x520c6c824f6ad7459ed0789d6711d3a30c7b9378aa7fdb0c3e7ed592d4edb4430x5e1c105967820192023-02-02 20:08:4155 mins ago0xc1b20fc0f57416ed53e3591d630d3f31dbbc70d7OUT 0xc2308db5d15aa43228d2c64cfb6cf62bfbd480b20 CRO0.6556350
0x518c2328677d3f5f9be58b5401f5507b6b61a6ab2300586f99698f33ccda99730x5e1c105967818532023-02-02 19:53:041 hr 11 mins ago0xc1b20fc0f57416ed53e3591d630d3f31dbbc70d7OUT 0xc2308db5d15aa43228d2c64cfb6cf62bfbd480b20 CRO0.6556350
0xe74f3342aa6f15fd780d8b66ba7753a31cf4d1c3873f1607977f2522d4f398510x5e1c105967814542023-02-02 19:15:281 hr 48 mins ago0xc1b20fc0f57416ed53e3591d630d3f31dbbc70d7OUT 0xc2308db5d15aa43228d2c64cfb6cf62bfbd480b20 CRO0.6556350
0x2e1c5f8100ffd8932e2aa2491cd44907dfcc92892c76642c94d61dee190131170x5e1c105967813972023-02-02 19:10:021 hr 54 mins ago0xc1b20fc0f57416ed53e3591d630d3f31dbbc70d7OUT 0xc2308db5d15aa43228d2c64cfb6cf62bfbd480b20 CRO0.6556350
0x6be5ac8cefaa4a91be27037b255ffef428b629a1b354e6bafc017aad1dd37ebd0x5e1c105967813332023-02-02 19:04:002 hrs ago0xc1b20fc0f57416ed53e3591d630d3f31dbbc70d7OUT 0xc2308db5d15aa43228d2c64cfb6cf62bfbd480b20 CRO0.6555750
0xdf54b4d2dbbb3c7f49c1536e43c7d7b13af71b8aecdd72bd7d5f45c2c2d40cb00x5e1c105967812692023-02-02 18:57:582 hrs 6 mins ago0xc1b20fc0f57416ed53e3591d630d3f31dbbc70d7OUT 0xc2308db5d15aa43228d2c64cfb6cf62bfbd480b20 CRO0.6556050
0x6bacd94b6ff7890d761b67c444f548229cb89bf94b012cc7f1eb6e01bc59f0120x5e1c105967812442023-02-02 18:55:372 hrs 8 mins ago0xc1b20fc0f57416ed53e3591d630d3f31dbbc70d7OUT 0xc2308db5d15aa43228d2c64cfb6cf62bfbd480b20 CRO0.6556050
0xc13a446da84b5e9d3de3ef7efbf30785673b6a83ff117f8799b328fc7c8535150x5e1c105967805862023-02-02 17:53:243 hrs 10 mins ago0xc1b20fc0f57416ed53e3591d630d3f31dbbc70d7OUT 0xc2308db5d15aa43228d2c64cfb6cf62bfbd480b20 CRO0.6556050
0x78bd2fe451628d202b476320d5e2092e97ec6717c15f9f738797fd2cdaf630160x5e1c105967805112023-02-02 17:46:183 hrs 17 mins ago0xc1b20fc0f57416ed53e3591d630d3f31dbbc70d7OUT 0xc2308db5d15aa43228d2c64cfb6cf62bfbd480b20 CRO0.6556350
0x697614677ea9ff97e2a7bc3895917f2916401d889de6827d27c491d27343313e0x5e1c105967803582023-02-02 17:31:543 hrs 32 mins ago0xc1b20fc0f57416ed53e3591d630d3f31dbbc70d7OUT 0xc2308db5d15aa43228d2c64cfb6cf62bfbd480b20 CRO0.6556050
0xd7f612c17f8e94d256238a42940617525c47fc4035b3f573e11f5240595450780x5e1c105967802712023-02-02 17:23:423 hrs 40 mins ago0xc1b20fc0f57416ed53e3591d630d3f31dbbc70d7OUT 0xc2308db5d15aa43228d2c64cfb6cf62bfbd480b20 CRO0.6556050
0x707e115e23e935ffbd4d7881681871ac598a257715f842993d866ca2f477f9410x5e1c105967801642023-02-02 17:13:373 hrs 50 mins ago0xc1b20fc0f57416ed53e3591d630d3f31dbbc70d7OUT 0xc2308db5d15aa43228d2c64cfb6cf62bfbd480b20 CRO0.6556050
0xffd1e64857ffbfdec30198e4a572de1896bc2e1690aa464f4a9e168d0057a71d0x5e1c105967800112023-02-02 16:59:124 hrs 4 mins ago0xc1b20fc0f57416ed53e3591d630d3f31dbbc70d7OUT 0xc2308db5d15aa43228d2c64cfb6cf62bfbd480b20 CRO0.6556350
0x1805f9b81c57bebd7c6ceeb5528347724df3722f1cfd2bb342f7a1b063707e690x5e1c105967795292023-02-02 16:13:474 hrs 50 mins ago0xc1b20fc0f57416ed53e3591d630d3f31dbbc70d7OUT 0xc2308db5d15aa43228d2c64cfb6cf62bfbd480b20 CRO0.6556350
0xb245d228d1ca1bc084f186fa1ce5e2f208316d108eda8b212f0ce7e2502e0d0d0x5e1c105967792662023-02-02 15:49:025 hrs 15 mins ago0xc1b20fc0f57416ed53e3591d630d3f31dbbc70d7OUT 0xc2308db5d15aa43228d2c64cfb6cf62bfbd480b20 CRO0.6556050
0xd93bc1bcb19d069c6bb77a03527cf93bb484caa8b40bf6a15a30c6d8453ea0d60x5e1c105967792182023-02-02 15:44:325 hrs 19 mins ago0xc1b20fc0f57416ed53e3591d630d3f31dbbc70d7OUT 0xc2308db5d15aa43228d2c64cfb6cf62bfbd480b20 CRO0.6556350
0x3e70db7286c76f73de0eb8eaaca531de5acfd20d8579ee12cc1e3134a50cceaa0x5e1c105967791472023-02-02 15:37:505 hrs 26 mins ago0xc1b20fc0f57416ed53e3591d630d3f31dbbc70d7OUT 0xc2308db5d15aa43228d2c64cfb6cf62bfbd480b20 CRO0.6556350
0xa48f8b0001c2e2a67be3a29be7f60100ff7f4389ea8a669d42d96d5d3e741b360x5e1c105967789892023-02-02 15:22:575 hrs 41 mins ago0xc1b20fc0f57416ed53e3591d630d3f31dbbc70d7OUT 0xc2308db5d15aa43228d2c64cfb6cf62bfbd480b20 CRO0.6556350
0x6e7e788e575c217e62a68bef8e8311ee5eb9adff96b2467f51163e3ae008c37f0x5e1c105967788102023-02-02 15:06:035 hrs 58 mins ago0xc1b20fc0f57416ed53e3591d630d3f31dbbc70d7OUT 0xc2308db5d15aa43228d2c64cfb6cf62bfbd480b20 CRO0.6556050
0x742404eac992cb1c44d78231089a90304855a23801e65f04eb87bff56fa531670x5e1c105967758312023-02-02 10:25:2010 hrs 38 mins ago0xc1b20fc0f57416ed53e3591d630d3f31dbbc70d7OUT 0xc2308db5d15aa43228d2c64cfb6cf62bfbd480b20 CRO0.6556050
0x022201d93d242496a5496a96644ed4b7d5f1e24f2b4921f523150a8c5449d7ff0x5e1c105967757292023-02-02 10:15:4410 hrs 48 mins ago0xc1b20fc0f57416ed53e3591d630d3f31dbbc70d7OUT 0xc2308db5d15aa43228d2c64cfb6cf62bfbd480b20 CRO0.6556050
0x71d01de5801711dc7ca4e64c8876d80b900a8b6d74d25da77ed3278e91479be50x5e1c105967756362023-02-02 10:07:0010 hrs 57 mins ago0xc1b20fc0f57416ed53e3591d630d3f31dbbc70d7OUT 0xc2308db5d15aa43228d2c64cfb6cf62bfbd480b20 CRO0.6556350
[ Download CSV Export 
Parent Txn Hash Block From To Value
Loading

Contract Name:
0

Compiler Version
0

Optimization Enabled:
0

Other Settings:
-NA-
Block Transaction Gas Used Reward
Age Block Fee Address BC Fee Address Voting Power Jailed Incoming
Block Uncle Number Difficulty Gas Used Reward
Loading
Make sure to use the "Vote Down" button for any spammy posts, and the "Vote Up" for interesting conversations.